Temp
27 27 28 29 30 30 30 30 30 31 32 31 31 31 32 32 32 33 33 34 32 29 29 26 25 24 23 22 23 23 22 21 21 20 19 18 19 18 18 19 18 17 19 19
28 26 29 30 29 29 29 29 29 31 31 31 31 31 32 32 33 33 33 34 33 31 29 26 25 24 23 22 22 24 23 22 22 20 20 19 19 19 19 19 18 17 18 18
27 29 30 28 27 27 28 29 29 29 31 32 31 30 31 33 33 33 33 33 33 31 30 27 25 25 24 23 22 25 24 23 23 21 19 19 19 19 19 18 18 18 17 17
28 29 29 28 27 28 28 30 29 29 29 28 32 29 31 32 32 34 34 34 33 31 29 28 25 25 24 23 22 26 25 24 23 22 20 19 20 20 19 19 19 18 19 18
28 27 27 27 28 29 28 29 29 29 29 29 30 29 30 32 31 33 34 35 34 33 30 29 27 25 25 24 23 27 27 26 24 23 21 20 21 21 20 19 19 19 18 20
27 27 27 28 28 29 29 28 28 28 28 27 29 29 30 31 32 33 35 35 34 34 33 30 29 26 25 24 23 26 24 25 26 24 23 22 20 20 20 20 20 19 18 19
28 29 29 28 27 29 28 28 26 26 27 27 29 29 30 32 33 33 33 33 34 33 33 31 30 28 25 25 23 23 24 24 26 24 24 23 22 22 22 21 20 19 18 19
27 27 28 29 28 28 28 28 26 24 24 24 26 27 29 32 33 32 32 31 31 31 32 32 32 30 26 25 24 23 24 25 25 25 25 24 23 22 21 20 20 19 18 17
26 27 29 29 30 30 27 26 29 26 27 26 26 27 31 32 32 32 31 30 29 27 27 28 29 30 28 25 24 23 22 24 25 25 25 24 24 23 20 20 21 19 18 18
26 24 29 29 29 29 29 29 27 27 23 24 25 27 28 30 31 31 30 29 27 25 25 26 27 28 27 25 24 23 21 21 24 24 25 25 24 23 22 22 21 20 19 19
26 25 27 28 28 28 28 28 27 28 26 24 26 28 31 30 31 29 30 27 25 24 24 25 26 25 25 24 24 22 21 20 20 23 25 25 24 23 22 21 21 21 19 19
25 25 25 27 29 28 28 27 27 27 26 27 27 28 32 30 30 27 27 25 21 21 22 23 23 23 24 23 22 22 21 20 19 20 23 24 23 22 22 21 22 21 19 17
24 25 24 26 28 27 27 26 27 27 27 25 26 27 31 28 28 25 24 23 21 19 19 19 22 22 22 22 21 21 20 20 20 19 19 20 20 22 22 22 22 21 18 17
22 24 23 24 25 26 25 26 26 25 25 26 27 28 30 27 24 22 20 20 20 21 18 18 18 19 19 19 19 19 19 19 20 20 20 20 19 19 19 21 22 21 19 17
23 21 23 24 25 25 26 25 26 26 26 25 26 27 28 21 18 18 18 18 18 19 19 19 18 18 18 18 18 19 19 19 19 19 18 18 19 19 19 18 18 18 18 18
23 21 23 23 24 26 25 25 26 25 25 25 26 25 21 18 20 19 21 21 19 17 18 18 18 17 17 17 16 17 17 18 19 20 21 20 18 18 18 18 18 17 18 19
20 21 22 22 24 25 23 25 25 24 24 23 23 22 20 20 21 19 19 20 20 18 17 16 18 22 16 15 16 17 19 20 20 22 22 21 18 18 18 18 18 18 17 17
19 19 21 21 22 21 25 24 23 22 21 21 20 19 17 17 17 17 16 18 18 17 17 15 16 17 16 15 16 20 17 18 22 21 19 21 22 21 19 19 18 17 17 17
20 19 21 21 22 24 25 22 22 21 20 18 18 18 18 18 18 19 16 16 16 16 15 14 15 15 16 17 17 15 15 17 17 18 18 16 19 20 20 20 18 17 18 18
20 19 19 22 21 22 20 20 18 20 19 17 16 17 17 18 20 21 16 16 15 14 14 14 13 14 14 13 13 15 16 16 16 17 17 16 16 17 19 19 19 18 18 18
19 18 18 21 21 21 19 18 17 19 16 15 15 16 16 17 19 17 15 15 14 14 13 14 14 14 13 13 13 15 15 14 14 13 13 14 15 17 17 18 19 18 17 18
17 18 18 19 20 20 18 19 18 15 15 16 16 16 17 17 15 14 14 13 13 13 13 13 13 15 15 14 13 15 16 15 14 15 13 13 13 14 16 19 17 17 17 16
16 17 16 17 18 18 17 16 14 15 14 13 13 16 16 14 14 14 13 13 13 12 13 13 13 12 14 15 15 15 16 16 15 13 13 14 15 16 15 14 15 15 15 15
18 17 17 17 18 18 17 16 13 14 14 13 14 15 14 13 13 13 13 12 12 12 13 12 13 12 12 13 13 14 14 15 15 13 13 13 13 13 14 14 15 15 13 13
17 16 14 15 18 17 16 15 15 14 14 14 14 14 13 13 11 11 12 11 12 11 12 12 12 12 11 11 11 13 13 13 13 13 13 13 13 13 12 13 14 13 14 13
18 18 19 17 16 16 16 15 15 15 15 14 14 13 13 13 13 11 11 11 11 12 11 11 11 12 11 11 12 13 13 13 12 12 11 12 12 13 12 13 12 13 13 13
Height
1487 1487 1482 1479 1474 1475 1475 1474 1473 1465 1464 1467 1467 1463 1460 1461 1458 1456 1454 1454 1456 1459 1467 1472 1476 1481 1485 1490 1494 1499 1505 1509 1513 1516 1519 1522 1524 1527 1530 1532 1534 1534 1535 1537
1483 1484 1473 1471 1472 1474 1475 1476 1472 1465 1463 1465 1461 1459 1454 1456 1452 1449 1448 1446 1448 1454 1459 1465 1469 1473 1477 1481 1486 1492 1498 1504 1508 1512 1516 1520 1522 1526 1527 1530 1531 1532 1533 1534
1477 1466 1465 1470 1474 1475 1469 1470 1469 1466 1459 1453 1457 1457 1450 1445 1444 1443 1443 1441 1442 1445 1452 1459 1462 1464 1471 1475 1478 1485 1492 1499 1504 1508 1512 1516 1520 1524 1525 1526 1527 1528 1529 1530
1469 1463 1463 1466 1469 1466 1468 1458 1460 1463 1463 1469 1446 1467 1447 1440 1440 1434 1435 1433 1436 1439 1445 1451 1456 1459 1463 1471 1476 1480 1485 1492 1499 1504 1508 1510 1515 1518 1520 1521 1524 1524 1524 1526
1464 1465 1464 1466 1462 1459 1462 1456 1454 1454 1457 1458 1452 1460 1444 1436 1439 1431 1427 1426 1430 1432 1437 1442 1446 1451 1459 1464 1466 1470 1472 1479 1491 1497 1502 1505 1510 1514 1517 1516 1518 1518 1518 1519
1465 1462 1464 1459 1456 1455 1455 1456 1454 1456 1455 1463 1448 1451 1443 1437 1430 1424 1420 1421 1425 1427 1430 1434 1440 1446 1452 1459 1462 1465 1468 1475 1482 1490 1495 1499 1504 1509 1512 1512 1513 1515 1515 1514
1458 1450 1452 1458 1460 1453 1454 1458 1471 1473 1466 1465 1438 1443 1434 1427 1424 1422 1423 1421 1422 1425 1428 1430 1433 1437 1443 1448 1454 1459 1462 1468 1477 1484 1490 1494 1499 1503 1506 1508 1510 1510 1509 1510
1466 1466 1452 1450 1454 1453 1448 1452 1463 1486 1482 1473 1449 1454 1439 1422 1419 1423 1424 1425 1425 1424 1424 1426 1427 1430 1433 1438 1443 1451 1455 1463 1470 1477 1483 1489 1494 1498 1502 1504 1507 1507 1505 1507
1471 1461 1449 1448 1444 1444 1452 1461 1443 1461 1454 1463 1463 1451 1425 1421 1417 1418 1422 1423 1423 1425 1424 1422 1422 1424 1428 1431 1436 1442 1448 1456 1465 1471 1478 1483 1489 1494 1499 1501 1502 1503 1503 1506
1468 1474 1444 1445 1444 1443 1444 1442 1456 1454 1481 1475 1458 1448 1437 1424 1418 1420 1422 1421 1422 1422 1420 1417 1416 1417 1422 1428 1431 1439 1444 1450 1458 1465 1472 1478 1484 1490 1493 1496 1498 1500 1502 1503
1464 1466 1456 1443 1442 1440 1441 1444 1445 1442 1453 1469 1453 1438 1411 1416 1416 1422 1419 1422 1421 1420 1418 1415 1415 1416 1420 1426 1431 1436 1442 1448 1453 1459 1466 1472 1479 1484 1488 1492 1495 1497 1499 1501
1468 1467 1466 1450 1436 1442 1439 1441 1440 1446 1452 1442 1440 1435 1406 1416 1418 1425 1422 1423 1424 1421 1420 1418 1418 1417 1420 1424 1429 1435 1443 1451 1456 1461 1465 1469 1475 1480 1483 1487 1491 1494 1497 1498
1474 1464 1468 1452 1440 1440 1440 1442 1441 1440 1439 1447 1446 1434 1405 1418 1421 1429 1427 1426 1424 1424 1420 1421 1421 1420 1424 1425 1430 1436 1441 1447 1452 1457 1464 1472 1477 1477 1480 1483 1486 1489 1493 1495
1479 1469 1471 1467 1450 1445 1451 1443 1443 1448 1447 1434 1425 1423 1411 1421 1430 1435 1433 1430 1428 1425 1421 1423 1422 1423 1426 1430 1433 1434 1439 1443 1450 1456 1462 1468 1474 1480 1485 1484 1484 1485 1487 1492
1472 1477 1466 1456 1450 1448 1446 1444 1441 1442 1437 1445 1428 1425 1414 1434 1441 1442 1438 1434 1429 1428 1428 1428 1426 1428 1429 1431 1431 1426 1433 1437 1441 1448 1457 1467 1468 1475 1481 1487 1490 1484 1483 1486
1472 1474 1464 1462 1451 1443 1445 1439 1436 1438 1436 1436 1431 1430 1435 1440 1441 1443 1438 1434 1434 1435 1435 1432 1424 1434 1435 1432 1437 1434 1440 1441 1446 1448 1447 1466 1474 1469 1477 1482 1485 1488 1482 1481
1476 1471 1465 1462 1446 1443 1449 1433 1430 1437 1437 1442 1441 1438 1443 1439 1441 1444 1443 1442 1437 1438 1437 1431 1422 1414 1439 1444 1442 1443 1442 1443 1449 1452 1448 1454 1470 1464 1470 1480 1481 1484 1481 1479
1472 1472 1466 1462 1454 1464 1430 1434 1438 1442 1446 1446 1446 1447 1448 1448 1447 1448 1450 1446 1445 1444 1439 1437 1430 1428 1436 1442 1448 1429 1449 1450 1442 1451 1455 1456 1453 1456 1464 1472 1477 1477 1479 1475
1467 1468 1458 1458 1448 1435 1426 1436 1441 1444 1446 1454 1452 1450 1447 1445 1443 1443 1450 1450 1447 1447 1446 1443 1443 1443 1441 1441 1441 1448 1455 1451 1448 1450 1453 1455 1449 1446 1455 1461 1466 1471 1472 1471
1463 1465 1465 1445 1451 1448 1444 1447 1450 1448 1451 1453 1452 1455 1451 1446 1440 1443 1452 1450 1449 1448 1448 1448 1445 1444 1443 1444 1447 1445 1442 1441 1443 1443 1442 1444 1444 1446 1450 1456 1454 1465 1467 1466
1462 1461 1461 1448 1446 1440 1450 1450 1452 1454 1465 1458 1457 1456 1453 1449 1446 1450 1452 1451 1450 1449 1448 1447 1447 1447 1447 1448 1448 1446 1447 1447 1448 1447 1447 1447 1446 1442 1446 1445 1448 1461 1462 1461
1467 1464 1460 1450 1448 1450 1454 1450 1452 1461 1461 1458 1457 1455 1451 1450 1452 1452 1453 1454 1452 1451 1452 1450 1449 1445 1444 1445 1446 1444 1446 1448 1447 1446 1448 1441 1433 1434 1434 1433 1456 1458 1456 1458
1473 1471 1470 1466 1460 1457 1457 1458 1461 1461 1459 1459 1458 1452 1450 1452 1453 1453 1455 1456 1455 1455 1455 1454 1452 1450 1449 1449 1448 1449 1448 1448 1449 1447 1447 1443 1440 1445 1451 1454 1453 1452 1452 1450
1466 1470 1467 1465 1460 1457 1457 1458 1460 1460 1459 1457 1455 1454 1454 1455 1456 1455 1457 1458 1457 1457 1457 1457 1456 1454 1453 1452 1452 1450 1446 1448 1448 1453 1453 1453 1456 1454 1449 1447 1446 1447 1447 1446
1469 1470 1473 1472 1460 1459 1459 1460 1460 1459 1459 1458 1457 1457 1457 1458 1459 1460 1460 1460 1460 1458 1459 1459 1459 1458 1457 1456 1455 1452 1453 1451 1452 1455 1453 1451 1448 1446 1443 1445 1448 1446 1445 1447
1468 1464 1460 1462 1462 1460 1459 1460 1459 1459 1460 1461 1461 1462 1461 1461 1460 1463 1461 1462 1462 1460 1461 1461 1463 1462 1461 1460 1458 1458 1458 1456 1456 1459 1455 1452 1452 1451 1452 1452 1449 1447 1447 1446
Wind_Speed
16 14 20 22 21 22 23 23 23 19 10 17 15 20 17 18 26 23 25 19 19 26 23 30 32 31 31 30 33 33 33 31 29 27 23 20 22 21 19 18 18 17 19 19
11 16 20 22 19 22 24 24 24 22 16 20 18 21 16 17 25 21 26 19 19 18 25 29 34 34 34 34 35 35 35 34 33 28 25 20 20 19 20 19 20 20 19 19
16 18 4 12 18 23 25 23 23 24 20 18 17 22 21 16 18 20 21 20 17 20 27 29 35 38 34 35 36 36 35 35 34 30 24 24 17 17 18 19 18 20 20 19
12 14 16 16 17 18 21 20 24 22 21 17 17 14 17 13 17 14 18 17 17 18 24 28 31 37 38 34 32 36 37 35 34 34 25 27 24 22 20 17 17 18 21 21
9 6 11 15 18 16 19 19 22 20 20 19 23 12 13 13 14 15 17 18 15 16 20 25 30 33 35 36 38 39 42 38 37 36 32 28 27 21 18 21 17 20 19 20
14 13 9 13 9 12 14 15 15 14 14 15 16 18 15 13 8 13 17 15 14 11 14 18 22 25 30 35 36 40 41 41 38 39 36 33 27 25 20 20 22 18 17 18
14 7 9 14 14 14 10 14 12 13 13 13 15 13 8 10 14 8 12 15 10 9 8 14 19 25 30 36 39 37 43 42 41 40 36 36 33 29 26 21 18 19 19 19
7 10 4 9 15 14 7 14 10 14 10 9 20 10 11 14 10 6 5 8 11 16 18 16 19 21 28 34 42 39 47 43 44 40 36 33 33 29 24 20 17 16 21 18
9 6 4 8 12 11 6 6 9 10 12 10 13 22 17 13 12 7 13 12 12 13 17 21 21 21 25 31 36 40 40 44 43 40 36 33 30 27 20 18 16 10 12 12
5 10 7 6 6 10 10 4 8 6 11 14 9 17 13 14 17 10 14 13 14 13 13 14 15 18 22 26 30 35 34 38 40 38 36 32 27 24 25 21 16 14 8 8
9 7 13 9 7 9 7 12 11 13 8 15 11 11 11 12 10 13 10 13 13 12 10 5 4 10 15 19 26 29 29 30 32 36 34 32 26 25 24 21 17 17 14 11
7 7 10 17 4 5 6 5 9 10 11 13 14 17 10 1 6 7 9 10 10 6 7 2 5 11 15 20 20 23 23 23 23 25 29 29 27 26 24 21 17 16 13 9
9 7 10 14 11 9 4 3 7 8 10 16 16 14 4 2 3 7 10 11 8 5 4 5 5 10 14 16 18 19 20 20 19 21 21 20 22 27 23 21 19 16 12 10
7 11 12 14 17 13 11 7 5 9 11 16 13 16 19 9 10 10 11 10 11 6 9 7 8 9 10 12 15 17 17 16 18 18 19 19 19 17 14 19 19 17 13 11
5 12 16 15 17 17 17 15 15 13 13 12 14 17 19 9 10 11 8 6 9 12 10 12 13 10 12 13 17 23 22 26 27 24 18 9 18 14 12 11 13 14 14 12
13 12 14 16 20 21 14 16 13 14 13 13 15 17 7 4 5 6 7 12 11 11 9 11 17 9 9 13 13 14 12 19 19 19 20 8 10 11 12 14 13 13 13 13
15 11 12 16 16 17 14 17 8 8 8 10 14 10 7 3 5 10 11 11 15 16 12 12 11 16 3 12 15 18 10 11 15 18 26 31 18 13 14 14 13 14 12 11
11 11 11 13 14 17 6 5 4 4 1 6 6 6 4 4 6 8 11 10 10 11 13 9 9 4 1 2 5 17 7 7 13 17 19 19 19 22 20 18 15 14 14 12
9 10 11 11 12 15 11 5 5 5 2 8 9 7 2 5 4 10 10 7 8 11 11 10 9 6 3 3 5 6 5 7 7 17 21 21 25 24 26 25 18 17 16 15
4 10 9 10 10 16 9 5 4 9 6 11 14 7 6 10 4 5 6 5 5 6 9 10 12 10 12 12 10 8 8 9 9 8 17 18 18 24 27 23 17 16 17 15
7 6 10 10 10 4 8 9 7 2 5 11 7 8 6 5 6 3 3 4 7 6 8 9 11 15 13 10 12 15 15 21 17 16 10 11 29 27 21 14 10 14 14 14
4 5 3 3 5 6 15 5 5 3 2 6 9 12 7 4 2 3 5 4 7 7 6 9 9 12 11 11 12 19 18 19 18 15 15 17 9 7 5 5 13 15 15 16
2 5 5 6 7 8 7 6 5 3 5 5 8 6 3 8 5 5 8 6 7 8 8 10 10 12 11 11 12 14 11 10 16 17 14 13 9 5 4 5 8 5 9 12
4 6 4 11 6 10 6 3 2 3 5 4 3 4 9 9 10 11 9 7 8 8 9 8 10 11 13 13 13 14 14 8 7 6 8 9 8 8 7 5 4 4 4 7
6 4 4 7 11 4 5 4 0 2 2 5 8 10 12 11 13 11 11 9 8 8 10 9 9 10 10 9 10 13 11 10 8 5 6 8 10 12 13 12 12 8 8 8
9 8 7 6 6 5 5 7 8 9 8 10 9 10 12 11 13 13 14 10 9 10 9 10 7 8 7 7 8 6 4 4 4 5 5 7 6 6 6 6 8 9 8 10
Wind_Direction
207 232 234 243 243 259 268 269 272 283 257 274 265 278 275 276 272 263 262 259 253 234 217 208 202 199 194 197 201 208 209 209 211 208 207 204 209 211 213 215 216 220 218 224
234 243 256 258 258 258 253 261 260 263 257 271 275 271 278 276 268 263 258 255 252 229 212 205 201 199 199 197 199 208 211 211 212 212 207 207 209 214 218 225 226 225 228 230
245 263 286 256 245 247 248 251 259 256 261 243 266 270 267 252 246 250 249 246 245 226 213 204 201 202 199 200 198 204 210 213 213 210 209 212 211 212 224 225 227 228 228 232
260 285 277 239 245 255 262 253 246 260 252 252 252 275 276 283 272 257 247 227 233 218 211 210 205 204 204 200 199 205 208 211 215 214 208 213 212 213 222 224 229 229 236 236
274 296 282 254 260 271 272 276 266 247 252 254 253 254 259 261 263 261 249 226 212 208 203 205 209 210 206 202 200 204 210 206 214 215 209 217 221 225 227 227 229 235 236 238
270 280 261 276 281 271 281 269 253 269 268 253 237 255 265 258 272 271 233 226 227 220 214 206 208 208 207 206 204 207 211 209 211 216 216 222 222 220 220 226 232 243 236 242
321 284 240 236 263 260 238 243 244 233 226 242 245 263 265 288 277 272 294 286 280 264 245 214 207 206 205 204 207 204 211 208 209 214 219 223 225 229 235 239 245 246 242 242
330 328 158 206 232 269 256 259 270 286 279 328 344 220 246 236 261 303 301 294 291 282 276 261 242 224 210 203 204 201 211 210 208 210 216 222 227 228 231 240 253 254 257 255
312 306 325 266 253 239 142 236 305 247 263 274 216 232 269 254 247 47 344 338 324 309 288 275 263 241 220 204 201 200 204 210 209 209 213 220 226 224 219 225 255 239 241 232
327 296 315 309 278 227 261 182 214 193 255 248 240 273 279 280 279 333 321 339 335 332 313 292 265 235 216 206 195 196 199 203 205 205 211 216 221 216 221 231 236 222 210 234
309 269 302 271 232 293 215 221 242 272 222 257 271 259 259 253 315 315 330 346 344 338 337 319 229 190 190 194 188 191 195 193 194 199 206 211 208 210 215 226 228 224 221 244
16 298 292 296 331 283 269 307 294 270 234 242 270 278 303 255 286 331 346 350 354 348 1 35 149 148 160 167 175 181 188 191 193 194 200 202 199 203 212 221 221 223 222 236
338 296 299 266 193 200 248 334 298 269 257 267 278 278 166 129 218 351 356 0 12 34 61 49 121 133 151 150 162 170 176 181 182 184 190 191 194 202 215 214 211 210 217 227
271 281 278 287 319 323 296 285 278 279 285 293 279 277 272 36 360 354 351 356 359 56 87 80 95 106 119 134 146 148 151 161 168 172 178 183 189 203 214 214 210 213 214 220
291 282 284 279 281 287 285 286 284 266 288 277 297 302 298 21 351 343 349 10 32 48 65 89 84 93 116 117 141 151 155 156 156 156 151 177 188 195 195 206 215 205 205 212
307 285 284 283 277 272 275 272 272 276 273 277 276 283 34 17 321 47 28 57 65 62 64 89 95 111 97 103 100 110 137 173 175 157 138 206 217 180 197 206 213 221 207 214
280 278 281 272 285 286 264 265 263 292 266 322 287 1 349 21 69 30 23 36 49 59 57 29 38 77 57 78 100 105 102 164 197 207 187 200 211 183 194 221 206 219 217 208
248 262 271 268 272 267 291 55 352 313 45 330 335 329 14 39 24 358 345 358 34 54 46 47 52 91 82 70 128 100 126 159 161 197 217 217 218 207 208 215 226 222 228 215
227 251 262 262 247 260 224 67 350 353 164 5 358 1 42 336 344 63 11 5 23 47 64 67 74 79 65 28 73 134 176 207 220 223 223 227 207 200 206 209 222 238 237 232
216 237 262 275 273 260 57 19 349 297 268 6 5 343 325 334 19 81 7 18 41 42 68 71 76 77 72 74 81 65 53 15 12 291 262 249 223 206 202 210 215 239 243 245
295 258 247 255 247 116 6 345 292 244 321 344 314 323 292 313 357 5 42 61 74 81 73 70 98 93 85 83 79 76 77 65 47 44 40 224 219 193 191 184 204 233 243 247
314 318 309 291 278 239 2 300 339 48 287 309 311 306 308 286 189 157 132 107 98 82 71 75 72 77 77 84 84 88 80 44 34 31 33 39 29 110 91 70 242 246 252 255
348 12 322 328 324 354 331 334 338 314 320 312 303 337 18 128 133 87 101 108 99 96 80 72 76 80 89 104 98 87 80 37 12 24 34 43 38 54 166 201 236 267 279 273
66 9 321 327 15 328 320 30 155 81 8 295 277 103 99 76 69 74 78 80 84 85 83 81 77 77 73 86 91 93 87 81 58 45 54 73 74 69 63 45 4 317 290 268
359 110 188 324 308 296 69 62 174 280 52 61 78 97 98 90 70 76 78 69 81 83 82 81 82 80 75 72 71 80 84 84 73 58 45 42 34 32 33 24 27 16 339 303
284 278 314 304 262 263 89 77 66 107 104 85 82 83 99 94 96 80 66 71 88 104 104 95 94 97 88 69 70 76 82 92 75 350 349 360 13 17 8 6 12 14 357 348